[[{"header":{"parameterUnit":"m.s-1","parameterCategory":1,"la1":30.2991,"la2":30.254,"lo1":-89.0895,"lo2":-89.0444,"dy":0.0017,"dx":0.0017,"nx":28,"ny":28,"refTime":"2024-06-16T03:00:00:Z","depth":0,"parameterNumber":2,"parameterNumberName":"U-component_of_WINDS"},"data":[0,0,0,0,0,0,0,0,0,0,0,0,0,0,0,0,0,0,0,0,0,0,0,0,0,0,0,0,0,0,0,0,0,0,0,0,0,0,0,0,0,0,0,0,0,0,0,0,0,0,0,0,0,0,0,0,0,0,-3.7119,-3.712,0,-3.7169,-3.717,-3.717,-3.7128,-3.7126,-3.7125,-3.7123,-3.7172,-3.7175,-3.7178,0,0,0,0,0,0,0,0,0,0,0,0,0,-3.6984,-3.6987,-3.7119,-3.712,-3.712,-3.7169,-3.717,-3.7171,-3.7128,-3.7126,-3.7124,-3.7122,-3.7171,-3.7174,-3.7178,0,0,0,0,0,0,0,0,0,0,0,0,0,-3.704,-3.6988,-3.7119,-3.7105,-3.7105,-3.7169,-3.717,-3.7171,-3.7129,-3.7126,-3.7124,-3.7121,-3.717,-3.7174,-3.7178,-3.7258,0,0,-3.7192,-3.7194,0,0,0,0,0,0,0,0,-3.7036,-3.7044,-3.7107,-3.7106,-3.7106,-3.714,-3.714,-3.72,-3.7129,-3.712,-3.7123,-3.712,-3.7163,-3.7168,-3.7183,-3.7261,-3.7263,-3.7192,-3.7195,-3.7197,-3.7198,0,0,0,0,0,0,0,-3.7033,-3.7042,-3.7139,-3.7108,-3.7107,-3.7096,-3.7101,-3.7151,-3.7155,-3.712,-3.7117,-3.7124,-3.7162,-3.7179,-3.7184,-3.7263,-3.7192,-3.7196,-3.7199,-3.72,-3.7407,-3.741,0,0,0,0,0,0,-3.7031,-3.7039,-3.7137,-3.714,-3.7064,-3.71,-3.7106,-3.7131,-3.7155,-3.7156,-3.7126,-3.7122,-3.7173,-3.7179,-3.7185,-3.7279,-3.7197,-3.7201,-3.7203,-3.7405,-3.7408,-3.7411,0,0,0,0,0,0,-3.7028,-3.704,-3.7135,-3.7089,-3.71,-3.7106,-3.7135,-3.7134,-3.715,-3.7159,-3.7159,-3.7142,-3.7171,-3.7179,-3.724,-3.728,-3.7203,-3.7207,-3.7401,-3.7406,-3.741,-3.7468,0,0,0,0,0,0,-3.7024,-3.7039,-3.707,-3.709,-3.7103,-3.719,-3.7137,-3.7137,-3.7158,-3.7153,-3.7175,-3.7176,-3.7169,-3.7234,-3.7245,-3.7285,-3.721,-3.7398,-3.7403,-3.7408,-3.7462,-3.7473,-3.7483,0,0,0,0,0,-3.702,-3.7084,-3.7072,-3.7084,-3.7142,-3.7193,-3.72,-3.7192,-3.7162,-3.7192,-3.7198,-3.7175,-3.7275,-3.7241,-3.7252,-3.7294,-3.7395,-3.7402,-3.7408,-3.7457,-3.7471,-3.7483,0,0,0,0,0,0,-3.7068,-3.7087,-3.7073,-3.7146,-3.7168,-3.7185,-3.7224,-3.7207,-3.7237,-3.7231,-3.722,-3.7225,-3.7289,-3.7298,-3.726,-3.7372,-3.733,-3.7339,-3.7363,-3.7377,-3.7387,-3.7382,-3.7214,0,0,0,0,0,-3.7087,-3.7128,-3.7142,-3.7205,-3.7217,-3.7219,-3.724,-3.7232,-3.7254,-3.7263,-3.7273,-3.7295,-3.7331,-3.7354,-3.7388,-3.7464,-3.7467,-3.7499,-3.7509,-3.7518,-3.7525,-3.7564,-3.7578,-3.7432,-3.7432,-3.7432,0,0,-3.7127,-3.7143,-3.7169,-3.7215,-3.7231,-3.7272,-3.7226,-3.7272,-3.7302,-3.727,-3.7327,-3.7336,-3.7359,-3.7428,-3.7458,-3.7437,-3.7566,-3.7526,-3.7533,-3.7535,-3.7572,-3.7586,-3.7598,-3.7437,-3.7436,-3.7435,0,0,-3.722,-3.7237,-3.7291,-3.7308,-3.7333,-3.7334,-3.7347,-3.7367,-3.7371,-3.743,-3.7406,-3.7441,-3.7504,-3.7521,-3.7538,-3.7638,-3.7617,-3.7649,-3.7703,-3.7741,-3.7753,-3.7763,-3.7797,-3.7809,-3.7657,-3.7657,-3.7657,0,-3.7267,-3.7328,-3.732,-3.7367,-3.7388,-3.7362,-3.7415,-3.7432,-3.7467,-3.7481,-3.7458,-3.7535,-3.7549,-3.762,-3.7645,-3.766,-3.7673,-3.7646,-3.7752,-3.7762,-3.7771,-3.7803,-3.7816,-3.7661,-3.766,-3.766,-3.766,0,-3.7383,-3.7426,-3.7466,-3.75,-3.7526,-3.7576,-3.7574,-3.7601,-3.7591,-3.7594,-3.7653,-3.7669,-3.7705,-3.7722,-3.7713,-3.7792,-3.7778,-3.7754,-3.771,-3.7789,-3.7818,-3.7831,-3.7666,-3.7665,-3.7664,-3.7663,0,0,-3.7506,-3.7536,-3.7551,-3.7566,-3.7592,-3.7624,-3.7673,-3.7709,-3.7731,-3.7756,-3.7795,-3.7849,-3.7826,-3.7846,-3.7838,-3.7873,-3.7948,-3.7844,-3.7844,-3.7861,-3.8034,-3.8051,-3.8065,-3.7936,-3.7938,-3.794,-3.8032,0,-3.7599,-3.7684,-3.7678,-3.7758,-3.7796,-3.7773,-3.7815,-3.7835,-3.7839,-3.7872,-3.7877,-3.7914,-3.7883,-3.7894,-3.7927,-3.7932,-3.7983,-3.7926,-3.7971,-3.7972,-3.7963,-3.8081,-3.8099,-3.8185,-3.8044,-3.8046,-3.8047,0,-3.7718,-3.7748,-3.7831,-3.785,-3.7866,-3.7904,-3.7936,-3.7968,-3.799,-3.7991,-3.8013,-3.8,-3.8048,-3.8005,-3.807,-3.8032,-3.805,-3.8056,-3.8059,-3.8061,-3.8013,-3.8084,-3.8212,-3.8224,-3.8066,-3.8064,-3.8063,0,-3.7797,-3.7858,-3.7915,-3.7929,-3.7954,-3.7981,-3.7992,-3.8012,-3.8033,-3.8061,-3.8075,-3.8108,-3.8125,-3.8151,-3.8147,-3.8117,-3.8213,-3.817,-3.8213,-3.8213,-3.8232,-3.8231,-3.8363,-3.8248,-3.8248,-3.8248,-3.8248,0,-3.79,-3.7952,-3.7951,-3.7986,-3.8043,-3.8036,-3.8092,-3.81,-3.8118,-3.8153,-3.8135,-3.8169,-3.8162,-3.8196,-3.8193,-3.8246,-3.8255,-3.8256,-3.8254,-3.8256,-3.8256,-3.8266,-3.8259,-3.8251,-3.8251,-3.825,-3.8249,0,-3.7997,-3.7999,-3.806,-3.8078,-3.8084,-3.8125,-3.814,-3.8173,-3.8176,-3.8221,-3.8231,-3.8236,-3.8275,-3.8274,-3.8317,-3.8315,-3.838,-3.8373,-3.8373,-3.837,-3.8413,-3.8408,-3.8554,-3.8572,-3.8448,-3.8449,-3.845,0,-3.8062,-3.8101,-3.8124,-3.8146,-3.8159,-3.8196,-3.8218,-3.8213,-3.8237,-3.8264,-3.8293,-3.833,-3.8359,-3.8421,-3.8428,-3.8461,-3.8453,-3.8502,-3.8457,-3.8458,-3.8451,-3.8448,-3.8451,-3.8509,-3.8511,-3.8512,-3.8513,0,-3.8175,-3.8174,-3.8207,-3.824,-3.8267,-3.8293,-3.8316,-3.8336,-3.8333,-3.836,-3.8399,-3.8422,-3.8466,-3.8502,-3.8534,-3.8544,-3.8528,-3.8527,-3.8538,-3.854,-3.8538,-3.8537,-3.8394,-3.8523,-3.8522,-3.8522,-3.8521,-3.8521,-3.8257,-3.829,-3.8311,-3.8347,-3.8365,-3.8387,-3.8418,-3.8426,-3.8458,-3.8494,-3.8489,-3.8532,-3.8553,-3.8594,-3.8607,-3.864,-3.8623,-3.864,-3.8644,-3.8648,-3.8651,-3.8534,-3.8647,-3.8646,-3.8646,-3.8646,-3.8645,0,-3.8368,-3.838,-3.8414,-3.8447,-3.8476,-3.8459,-3.8484,-3.8509,-3.8547,-3.8568,-3.8597,-3.8641,-3.8676,-3.8686,-3.872,-3.8744,-3.8738,-3.8753,-3.875,-3.8753,-3.8666,-3.8652,-3.8758,-3.8758,-3.8758,-3.8758,-3.8758,-3.8758,-3.8429,-3.8483,-3.8484,-3.8547,-3.8559,-3.8601,-3.8617,-3.8637,-3.8653,-3.8703,-3.8732,-3.8739,-3.8755,-3.879,-3.8821,-3.8823,-3.8835,-3.8853,-3.8852,-3.877,-3.8759,-3.8748,-3.8735,-3.8856,-3.8857,-3.8936,-3.8936,-3.8937]},{"header":{"parameterUnit":"m.s-1","parameterCategory":1,"la1":30.2991,"la2":30.254,"lo1":-89.0895,"lo2":-89.0444,"dy":0.0017,"dx":0.0017,"nx":28,"ny":28,"refTime":"2024-06-16T03:00:00:Z","depth":0,"parameterNumber":3,"parameterNumberName":"V-component_of_WINDS"},"data":[0,0,0,0,0,0,0,0,0,0,0,0,0,0,0,0,0,0,0,0,0,0,0,0,0,0,0,0,0,0,0,0,0,0,0,0,0,0,0,0,0,0,0,0,0,0,0,0,0,0,0,0,0,0,0,0,0,0,2.7417,2.7418,0,2.7471,2.7471,2.7472,2.7447,2.7445,2.7444,2.7443,2.7494,2.7497,2.7499,0,0,0,0,0,0,0,0,0,0,0,0,0,2.729,2.7293,2.7417,2.7418,2.7419,2.7471,2.7472,2.7472,2.7447,2.7445,2.7444,2.7442,2.7493,2.7496,2.75,0,0,0,0,0,0,0,0,0,0,0,0,0,2.7345,2.7294,2.7417,2.7413,2.7413,2.7471,2.7472,2.7472,2.7447,2.7445,2.7443,2.7441,2.7492,2.7496,2.75,2.7565,0,0,2.7512,2.7514,0,0,0,0,0,0,0,0,2.7342,2.7349,2.7413,2.7413,2.7413,2.745,2.7446,2.7503,2.7448,2.7434,2.7443,2.744,2.7481,2.7486,2.75,2.7567,2.7569,2.7512,2.7515,2.7517,2.7518,0,0,0,0,0,0,0,2.7338,2.7347,2.7438,2.7413,2.7414,2.7407,2.7412,2.7456,2.7468,2.7435,2.7433,2.744,2.7481,2.7496,2.7501,2.757,2.7512,2.7516,2.7518,2.752,2.7692,2.7694,0,0,0,0,0,0,2.7335,2.7344,2.7437,2.744,2.7372,2.7411,2.7417,2.744,2.7468,2.747,2.7442,2.7439,2.7491,2.7497,2.7503,2.758,2.7516,2.752,2.7522,2.769,2.7693,2.7695,0,0,0,0,0,0,2.7332,2.7343,2.7435,2.7392,2.7403,2.7415,2.7442,2.7442,2.7458,2.7473,2.7474,2.7456,2.7489,2.7497,2.755,2.7581,2.7522,2.7526,2.7687,2.7691,2.7694,2.7734,0,0,0,0,0,0,2.7329,2.7343,2.7368,2.7392,2.7405,2.7482,2.7444,2.7445,2.7465,2.7462,2.7486,2.7488,2.7488,2.7544,2.7554,2.7585,2.7529,2.7685,2.7689,2.7693,2.773,2.7739,2.7746,0,0,0,0,0,2.7324,2.7377,2.7369,2.7381,2.7437,2.7483,2.7491,2.749,2.7468,2.7493,2.7503,2.7488,2.7577,2.755,2.756,2.7594,2.7683,2.7688,2.7693,2.7727,2.7737,2.7746,0,0,0,0,0,0,2.7354,2.738,2.7372,2.7434,2.7457,2.7479,2.7511,2.7501,2.753,2.7525,2.7523,2.7529,2.7583,2.7594,2.7563,2.7657,2.7626,2.7633,2.7648,2.7658,2.7666,2.7661,2.7532,0,0,0,0,0,2.7369,2.7405,2.7425,2.7478,2.749,2.7498,2.7518,2.7516,2.7539,2.7549,2.7562,2.7584,2.7617,2.7638,2.7669,2.7732,2.7736,2.776,2.7768,2.7775,2.778,2.7814,2.7824,2.7712,2.7712,2.7711,0,0,2.7397,2.7416,2.7439,2.7484,2.7502,2.7538,2.7507,2.7547,2.7573,2.7554,2.7604,2.7615,2.764,2.7697,2.7723,2.7708,2.7813,2.7781,2.7786,2.7788,2.782,2.7831,2.784,2.7715,2.7714,2.7714,0,0,2.7469,2.7487,2.7533,2.7551,2.7578,2.7584,2.7595,2.7619,2.7626,2.7676,2.7663,2.7694,2.7751,2.7768,2.7785,2.7864,2.7851,2.7874,2.7914,2.7946,2.7955,2.7963,2.799,2.8,2.788,2.788,2.788,0,2.7501,2.7557,2.7557,2.7599,2.7618,2.7604,2.765,2.7667,2.7703,2.7716,2.7699,2.777,2.7785,2.7847,2.7866,2.788,2.7892,2.787,2.7954,2.7962,2.7969,2.7995,2.8005,2.7883,2.7882,2.7882,2.7882,0,2.7594,2.7633,2.7667,2.7703,2.7726,2.777,2.7775,2.7799,2.7796,2.7803,2.7854,2.7872,2.7906,2.7921,2.7917,2.7982,2.7971,2.7954,2.7922,2.7983,2.8006,2.8016,2.7886,2.7885,2.7885,2.7884,0,0,2.7685,2.7721,2.7733,2.7749,2.7779,2.7808,2.785,2.7885,2.7905,2.793,2.7964,2.8013,2.7998,2.8016,2.8014,2.8043,2.8103,2.8022,2.8023,2.8036,2.8174,2.8186,2.8197,2.8095,2.8097,2.8099,2.8171,0,2.7758,2.7833,2.7835,2.7903,2.7938,2.7925,2.7962,2.7983,2.7991,2.8022,2.803,2.8064,2.8042,2.8053,2.8081,2.809,2.813,2.8085,2.8126,2.8127,2.8119,2.821,2.8222,2.829,2.8181,2.8183,2.8184,0,2.7852,2.7881,2.7954,2.7977,2.7992,2.8025,2.8057,2.8087,2.811,2.8114,2.8135,2.8129,2.8171,2.8139,2.8196,2.8165,2.8182,2.8189,2.8192,2.8194,2.8158,2.8214,2.8312,2.8322,2.8199,2.8198,2.8196,0,2.791,2.7967,2.8017,2.8032,2.8061,2.8084,2.8098,2.8119,2.814,2.8167,2.818,2.8212,2.8229,2.8253,2.8256,2.8232,2.8313,2.8281,2.8316,2.8316,2.8332,2.8331,2.8433,2.8346,2.8345,2.8345,2.8345,0,2.799,2.8034,2.8044,2.8075,2.8123,2.8125,2.8173,2.8184,2.8204,2.8236,2.8227,2.8257,2.8258,2.8289,2.8291,2.8337,2.8345,2.8348,2.8348,2.8349,2.8348,2.8359,2.8353,2.8348,2.8347,2.8347,2.8346,0,2.8062,2.807,2.8124,2.8148,2.8155,2.819,2.821,2.8239,2.8246,2.8287,2.8296,2.8307,2.8343,2.8348,2.8389,2.839,2.8446,2.8441,2.8438,2.8437,2.8471,2.8467,2.8583,2.8597,2.8501,2.8502,2.8503,0,2.8112,2.8146,2.8173,2.8195,2.8209,2.8244,2.8265,2.8268,2.829,2.8319,2.8345,2.8379,2.8407,2.8464,2.8475,2.8507,2.8502,2.854,2.8506,2.8506,2.8501,2.8498,2.8501,2.8546,2.8547,2.8548,2.8549,0,2.8199,2.8202,2.8233,2.8266,2.8292,2.8318,2.8342,2.836,2.8366,2.8391,2.8428,2.8449,2.8492,2.8526,2.8557,2.8569,2.856,2.856,2.8569,2.8569,2.8566,2.8567,2.8454,2.8557,2.8556,2.8555,2.8555,2.8555,2.8261,2.829,2.8314,2.835,2.8368,2.8391,2.842,2.8431,2.8462,2.8497,2.8497,2.8537,2.8559,2.86,2.8615,2.8645,2.8633,2.8647,2.865,2.8653,2.8656,2.8562,2.8651,2.8651,2.8651,2.865,2.865,0,2.8347,2.8362,2.8394,2.8429,2.8457,2.8447,2.8473,2.8496,2.8532,2.8554,2.8582,2.8624,2.8657,2.8671,2.8703,2.8725,2.8721,2.8733,2.8731,2.8734,2.8666,2.8654,2.8736,2.8736,2.8736,2.8736,2.8736,2.8736,2.8395,2.8443,2.8449,2.8507,2.8521,2.8561,2.8577,2.8598,2.8615,2.8663,2.8691,2.87,2.8719,2.8752,2.8782,2.8785,2.8797,2.881,2.8812,2.8747,2.8739,2.873,2.8719,2.8813,2.8813,2.8877,2.8877,2.8878]}]]